Location: Peterborough
(44.3091°N, 78.3197°W)
Time: 17:29:04
(UTC-04:00)

Transit 2A Rocket - Pass Details

Date: 26 March 2023
Orbit: 584 x 914 km, 66.7° (Epoch: 04 June)

Event Time Altitude Azimuth Distance (km) Brightness Sun altitude
Rises 20:36:19 0° 329° (NNW) 3,556 9.2 -12.0°
Reaches altitude 10° 20:38:54 10° 332° (NNW) 2,611 8.4 -12.4°
Maximum altitude 20:45:01 68° 55° (NE) 964 5.3 -13.5°
Enters shadow 20:49:45 16° 137° (SE) 2,102 6.7 -14.3°
Drops below altitude 10° 20:50:50 10° 139° (SE) 2,496 - -14.5°
Sets 20:53:15 0° 142° (SE) 3,389 - -14.9°
